Home > Weather > Samsun > Past weeks

Flag for Turkey Past Weather in Samsun, Turkey — Yesterday and Last 2 Weeks

Now
72 °F

Partly cloudy.


Feels Like: 71 °F
Forecast: 69 / 80 °F
Wind: 5 mph from South

Location: Samsun / Carsamba

Current Time: Aug 27, 2016 at 6:25:18 AM

Latest Report: Aug 27, 2016 at 5:50 AM


Visibility: N/A

Pressure: 30.01 "Hg

Humidity: 83%

Dew Point: 66 °F

Location of SamsunLocation

Past Weather in Samsun — Graph

°F

Samsun Temperature Yesterday

Maximum temperature yesterday: 81 °F (at 2:50 PM)
Minimum temperature yesterday: 72 °F (at 11:50 PM)
Average temperature yesterday: 77 °F

High & Low Weather Summary for the Past Weeks

 TemperatureHumidityPressure
High90 °F (Aug 12, 10:50 AM)94% (Aug 12, 8:50 PM)30.15 "Hg (Aug 12, 8:50 PM)
Low63 °F (Aug 19, 5:50 AM)36% (Aug 12, 11:50 AM)29.83 "Hg (Aug 12, 4:50 AM)
Average76 °F76%29.91 "Hg
* Reported Aug 12 4:50 AM — Aug 27 4:50 AM, Samsun, Weather by CustomWeather, © 2016

Note: Actual official high and low records may vary slightly from our data, if they occured in-between our weather recording intervals... More about our weather records

Advertising

Samsun Weather History for the Previous 24 Hours

Scroll right to see more
 ConditionsComfort  
Time TempWeatherWind HumidityBarometerVisibility
4:50 AM
Sat, Aug 27
73 °FPartly cloudy.8 mph78%29.98 "HgN/A
3:50 AM73 °FPartly cloudy.9 mph78%29.98 "HgN/A
2:50 AM73 °FPartly cloudy.10 mph78%29.98 "HgN/A
1:50 AM73 °FPartly cloudy.14 mph78%29.98 "HgN/A
12:50 AM70 °FPartly cloudy.1 mph88%30.01 "HgN/A
11:50 PM
Fri, Aug 26
72 °FPartly cloudy.6 mph83%29.98 "HgN/A
10:50 PM73 °FPartly cloudy.7 mph83%29.98 "HgN/A
9:59 PM73 °FSprinkles. Partly cloudy.5 mph89%29.98 "Hg5 mi
8:50 PM75 °FThunderstorms. Partly cloudy.7 mph89%29.98 "Hg4 mi
8:03 PM77 °FThunderstorms. Partly sunny.6 mph79%29.98 "HgN/A
7:50 PM77 °FBroken clouds.5 mph79%29.98 "HgN/A
6:50 PM77 °FBroken clouds.3 mph79%29.95 "HgN/A
5:50 PM79 °FBroken clouds.8 mph74%29.95 "HgN/A
4:50 PM81 °FBroken clouds.9 mph74%29.95 "HgN/A
3:50 PM81 °FBroken clouds.9 mph66%29.95 "HgN/A
2:50 PM81 °FBroken clouds.9 mph70%29.95 "HgN/A
1:50 PM79 °FBroken clouds.14 mph79%29.95 "HgN/A
12:50 PM79 °FBroken clouds.13 mph74%29.95 "HgN/A
11:50 AM79 °FBroken clouds.13 mph74%29.95 "HgN/A
10:50 AM79 °FBroken clouds.9 mph70%29.95 "HgN/A
9:50 AM79 °FBroken clouds.9 mph70%29.95 "HgN/A
8:50 AM79 °FBroken clouds.13 mph70%29.95 "HgN/A
7:50 AM77 °FPartly sunny.13 mph74%29.95 "HgN/A
6:50 AM77 °FPartly cloudy.15 mph74%29.95 "HgN/A
Weather by CustomWeather, © 2016

See weather overviewHow to use our weather pages